• In Germany
  • List of Countries
  • For 7 days
  • Water Temperature
  • Satellite Maps
  • Weather Map
  • Weather Widgets
  • user-avatar
    Login

    Hourly Weather Enhor

    Today, 17 July, Tuesday

    Time Temperature Precipitation Wind Pressure Humidity
    00:00 +19°C° 0 mm 2 mps 699 mmHg 79%
    01:00 +18°C° 0 mm 2 mps 699 mmHg 83%
    02:00 +18°C° 0 mm 2 mps 699 mmHg 84%
    03:00 +17°C° 0 mm 2 mps 699 mmHg 86%
    04:00 +17°C° 0 mm 2 mps 699 mmHg 87%
    05:00 +18°C° 0.1 mm 2 mps 699 mmHg 84%
    06:00 +19°C° 0.1 mm 2 mps 699 mmHg 81%
    07:00 +20°C° 0 mm 3 mps 699 mmHg 79%
    08:00 +21°C° 0.3 mm 3 mps 699 mmHg 77%
    09:00 +22°C° 0.3 mm 4 mps 699 mmHg 75%
    10:00 +22°C° 0.3 mm 4 mps 699 mmHg 73%
    11:00 +23°C° 0.3 mm 4 mps 699 mmHg 70%
    12:00 +25°C° 0.3 mm 4 mps 698 mmHg 67%
    13:00 +25°C° 0 mm 5 mps 698 mmHg 67%
    14:00 +25°C° 0.2 mm 5 mps 698 mmHg 65%
    15:00 +26°C° 0.2 mm 5 mps 698 mmHg 63%
    16:00 +26°C° 0.2 mm 5 mps 698 mmHg 61%
    17:00 +25°C° 0.1 mm 5 mps 698 mmHg 65%
    18:00 +23°C° 0.1 mm 4 mps 698 mmHg 68%
    19:00 +24°C° 0.1 mm 3 mps 698 mmHg 71%
    20:00 +21°C° 0 mm 3 mps 698 mmHg 75%
    21:00 +19°C° 0 mm 3 mps 698 mmHg 79%
    22:00 +18°C° 0 mm 2 mps 699 mmHg 83%
    23:00 +17°C° 0 mm 2 mps 699 mmHg 85%

    Tomorrow, 18 July, Wednesday

    Time Temperature Precipitation Wind Pressure Humidity
    00:00 +17°C° 0 mm 2 mps 699 mmHg 87%
    01:00 +16°C° 0 mm 2 mps 699 mmHg 88%
    02:00 +16°C° 0 mm 2 mps 699 mmHg 89%
    03:00 +16°C° 0 mm 1 mps 699 mmHg 89%
    04:00 +16°C° 0 mm 1 mps 699 mmHg 89%
    05:00 +18°C° 0 mm 1 mps 699 mmHg 84%
    06:00 +20°C° 0 mm 1 mps 700 mmHg 78%
    07:00 +21°C° 0 mm 1 mps 700 mmHg 73%
    08:00 +23°C° 0 mm 1 mps 700 mmHg 67%
    09:00 +25°C° 0 mm 1 mps 700 mmHg 62%
    10:00 +26°C° 0 mm 1 mps 700 mmHg 56%
    11:00 +27°C° 0.1 mm 1 mps 700 mmHg 55%
    12:00 +28°C° 0.1 mm 1 mps 700 mmHg 53%
    13:00 +29°C° 0.1 mm 1 mps 699 mmHg 52%
    14:00 +29°C° 0.2 mm 1 mps 699 mmHg 52%
    15:00 +29°C° 0.2 mm 1 mps 699 mmHg 53%
    16:00 +28°C° 0.2 mm 1 mps 699 mmHg 53%
    17:00 +28°C° 0.2 mm 1 mps 699 mmHg 57%
    18:00 +27°C° 0.2 mm 1 mps 699 mmHg 62%
    19:00 +26°C° 0.2 mm 1 mps 699 mmHg 66%
    20:00 +25°C° 0 mm 1 mps 699 mmHg 70%
    21:00 +23°C° 0 mm 1 mps 699 mmHg 74%
    22:00 +21°C° 0 mm 1 mps 699 mmHg 78%
    23:00 +21°C° 0 mm 1 mps 699 mmHg 80%

    Day after tomorrow, 19 July, Thursday

    Time Temperature Precipitation Wind Pressure Humidity
    00:00 +20°C° 0 mm 1 mps 699 mmHg 81%
    01:00 +20°C° 0 mm 1 mps 699 mmHg 83%
    02:00 +20°C° 0 mm 1 mps 699 mmHg 84%
    03:00 +18°C° 0 mm 2 mps 699 mmHg 85%
    04:00 +18°C° 0 mm 2 mps 698 mmHg 87%
    05:00 +19°C° 0 mm 2 mps 699 mmHg 83%
    06:00 +21°C° 0 mm 2 mps 699 mmHg 79%
    07:00 +23°C° 0 mm 2 mps 699 mmHg 76%
    08:00 +25°C° 0 mm 2 mps 699 mmHg 70%
    09:00 +26°C° 0 mm 3 mps 699 mmHg 64%
    10:00 +28°C° 0 mm 3 mps 699 mmHg 59%
    11:00 +29°C° 0 mm 3 mps 698 mmHg 56%
    12:00 +30°C° 0 mm 3 mps 698 mmHg 54%
    13:00 +30°C° 0 mm 3 mps 697 mmHg 51%
    14:00 +30°C° 0.6 mm 3 mps 697 mmHg 55%
    15:00 +29°C° 0.6 mm 3 mps 696 mmHg 59%
    16:00 +29°C° 0.6 mm 3 mps 696 mmHg 62%
    17:00 +27°C° 0.8 mm 3 mps 696 mmHg 67%
    18:00 +26°C° 0.8 mm 3 mps 695 mmHg 71%
    19:00 +25°C° 0.8 mm 3 mps 695 mmHg 76%
    20:00 +24°C° 3 mm 3 mps 695 mmHg 81%
    21:00 +23°C° 3 mm 2 mps 694 mmHg 87%
    22:00 +21°C° 3 mm 2 mps 694 mmHg 92%
    23:00 +20°C° 1.8 mm 2 mps 694 mmHg 93%

    20 July, Friday

    Time Temperature Precipitation Wind Pressure Humidity
    00:00 +20°C° 1.8 mm 2 mps 694 mmHg 94%
    01:00 +21°C° 1.8 mm 1 mps 694 mmHg 95%
    02:00 +20°C° 0.6 mm 1 mps 694 mmHg 95%
    03:00 +20°C° 0.6 mm 1 mps 694 mmHg 95%
    04:00 +20°C° 0.6 mm 1 mps 694 mmHg 95%
    05:00 +21°C° 0.2 mm 1 mps 694 mmHg 92%
    06:00 +21°C° 0.2 mm 1 mps 694 mmHg 89%
    07:00 +22°C° 0.2 mm 1 mps 694 mmHg 87%
    08:00 +23°C° 0.3 mm 2 mps 695 mmHg 82%
    09:00 +24°C° 0.3 mm 2 mps 695 mmHg 77%
    10:00 +25°C° 0.3 mm 3 mps 695 mmHg 72%
    11:00 +26°C° 0.2 mm 3 mps 695 mmHg 67%
    12:00 +27°C° 0.2 mm 3 mps 695 mmHg 63%
    13:00 +27°C° 0.2 mm 3 mps 695 mmHg 58%
    14:00 +27°C° 0 mm 3 mps 695 mmHg 57%
    15:00 +27°C° 0 mm 3 mps 695 mmHg 56%
    16:00 +27°C° 0 mm 3 mps 695 mmHg 55%
    17:00 +25°C° 0 mm 4 mps 695 mmHg 60%
    18:00 +23°C° 0 mm 4 mps 695 mmHg 65%
    19:00 +21°C° 0 mm 4 mps 695 mmHg 70%
    20:00 +20°C° 0.2 mm 3 mps 695 mmHg 72%
    21:00 +19°C° 0.2 mm 3 mps 695 mmHg 75%
    22:00 +17°C° 0.2 mm 2 mps 696 mmHg 78%
    23:00 +18°C° 0 mm 1 mps 696 mmHg 80%

    21 July, Saturday

    Time Temperature Precipitation Wind Pressure Humidity
    00:00 +16°C° 0 mm 1 mps 696 mmHg 82%
    01:00 +16°C° 0 mm 1 mps 695 mmHg 84%
    02:00 +15°C° 0 mm 1 mps 695 mmHg 84%
    03:00 +15°C° 0 mm 1 mps 695 mmHg 84%
    04:00 +15°C° 0 mm 2 mps 695 mmHg 85%
    05:00 +16°C° 0 mm 2 mps 695 mmHg 81%
    06:00 +17°C° 0 mm 3 mps 696 mmHg 78%
    07:00 +18°C° 0 mm 3 mps 696 mmHg 75%
    08:00 +17°C° 0.6 mm 4 mps 696 mmHg 78%
    09:00 +17°C° 0.6 mm 4 mps 697 mmHg 82%
    10:00 +15°C° 0.6 mm 4 mps 697 mmHg 85%
    11:00 +15°C° 0.5 mm 4 mps 697 mmHg 85%
    12:00 +16°C° 0.5 mm 5 mps 697 mmHg 85%
    13:00 +16°C° 0.5 mm 5 mps 698 mmHg 84%
    14:00 +16°C° 0.3 mm 5 mps 698 mmHg 82%
    15:00 +18°C° 0.3 mm 4 mps 699 mmHg 80%
    16:00 +18°C° 0.3 mm 4 mps 699 mmHg 78%
    17:00 +18°C° 0 mm 3 mps 699 mmHg 78%
    18:00 +18°C° 0 mm 3 mps 700 mmHg 78%
    19:00 +18°C° 0 mm 2 mps 700 mmHg 78%
    20:00 +17°C° 0 mm 2 mps 700 mmHg 80%
    21:00 +16°C° 0 mm 2 mps 700 mmHg 82%
    22:00 +15°C° 0 mm 2 mps 701 mmHg 84%
    23:00 +15°C° 0 mm 2 mps 701 mmHg 86%

    22 July, Sunday

    Time Temperature Precipitation Wind Pressure Humidity
    00:00 +14°C° 0 mm 2 mps 701 mmHg 87%
    01:00 +14°C° 0 mm 2 mps 701 mmHg 89%
    02:00 +14°C° 0 mm 2 mps 701 mmHg 89%
    03:00 +13°C° 0 mm 2 mps 701 mmHg 89%
    04:00 +13°C° 0 mm 2 mps 701 mmHg 89%
    05:00 +15°C° 0 mm 2 mps 701 mmHg 84%
    06:00 +16°C° 0 mm 2 mps 702 mmHg 79%
    07:00 +18°C° 0 mm 2 mps 702 mmHg 73%
    08:00 +20°C° 0 mm 2 mps 702 mmHg 67%
    09:00 +21°C° 0 mm 2 mps 702 mmHg 60%
    10:00 +24°C° 0 mm 2 mps 702 mmHg 53%
    11:00 +25°C° 0 mm 2 mps 702 mmHg 49%
    12:00 +26°C° 0 mm 2 mps 701 mmHg 46%
    13:00 +27°C° 0 mm 2 mps 701 mmHg 42%
    14:00 +28°C° 0 mm 2 mps 701 mmHg 41%
    15:00 +28°C° 0 mm 1 mps 701 mmHg 41%
    16:00 +28°C° 0 mm 1 mps 701 mmHg 41%
    17:00 +27°C° 0 mm 1 mps 701 mmHg 48%
    18:00 +26°C° 0 mm 1 mps 701 mmHg 55%
    19:00 +24°C° 0 mm 1 mps 701 mmHg 61%
    20:00 +22°C° 0 mm 1 mps 701 mmHg 65%
    21:00 +21°C° 0 mm 1 mps 700 mmHg 68%
    22:00 +19°C° 0 mm 1 mps 700 mmHg 71%
    23:00 +18°C° 0.1 mm 1 mps 700 mmHg 72%
    Show more